FW1041 Weather Reports


time (UTC)temp
F
wind
direction
speed
knots
gust
knots
rain 1hr
in
rain 24hr
in
rain mn
in
humidity
%
barometer
mb
20260507200511 90 330 1.7 6.1 0.00 0.00 0.00 8 1014.6
20260507200011 89 274 0.9 9.6 0.00 0.00 0.00 8 1014.6
20260507195513 89 214 1.7 10.4 0.00 0.00 0.00 9 1014.8
20260507195011 89 152 3.5 10.4 0.00 0.00 0.00 9 1014.8
20260507194511 89 181 3.5 7.8 0.00 0.00 0.00 9 1014.8
20260507193511 89 232 1.7 6.1 0.00 0.00 0.00 9 1015.0
20260507193011 89 243 3.5 6.1 0.00 0.00 0.00 9 1015.0
20260507192511 89 232 3.5 9.6 0.00 0.00 0.00 9 1015.4
20260507191511 88 171 2.6 8.7 0.00 0.00 0.00 9 1015.4
20260507191011 88 177 1.7 7.8 0.00 0.00 0.00 8 1015.5
20260507185011 87 138 3.5 10.4 0.00 0.00 0.00 10 1015.9
20260507184511 87 137 4.3 8.7 0.00 0.00 0.00 10 1015.9
20260507184011 86 119 3.5 6.1 0.00 0.00 0.00 10 1016.0
20260507183512 87 173 3.5 6.1 0.00 0.00 0.00 11 1016.0
20260507183011 86 137 4.3 8.7 0.00 0.00 0.00 11 1016.0
20260507182512 86 143 2.6 8.7 0.00 0.00 0.00 11 1016.2
20260507181512 86 153 5.2 8.7 0.00 0.00 0.00 11 1016.2
20260507181010 86 216 3.5 8.7 0.00 0.00 0.00 11 1016.4
20260507180510 86 214 0.0 7.0 0.00 0.00 0.00 10 1016.4
20260507180011 85 298 0.9 7.8 0.00 0.00 0.00 9 1016.4
20260507175511 85 150 7.0 7.8 0.00 0.00 0.00 10 1016.6
20260507175011 85 275 0.9 9.6 0.00 0.00 0.00 11 1016.6
20260507174511 85 209 1.7 9.6 0.00 0.00 0.00 11 1016.6
20260507174011 85 206 1.7 5.2 0.00 0.00 0.00 11 1016.6
20260507173511 84 226 0.9 7.8 0.00 0.00 0.00 10 1016.6
20260507173011 84 206 1.7 7.8 0.00 0.00 0.00 11 1016.6
20260507172511 84 225 3.5 4.3 0.00 0.00 0.00 11 1016.7
20260507172011 84 193 2.6 4.3 0.00 0.00 0.00 12 1016.7
20260507171511 84 229 3.5 4.3 0.00 0.00 0.00 11 1016.7
20260507171011 84 238 0.9 6.1 0.00 0.00 0.00 11 1016.7
20260507170511 84 185 2.6 6.1 0.00 0.00 0.00 12 1016.7
20260507170011 84 181 0.9 6.1 0.00 0.00 0.00 11 1016.7
20260507165511 84 155 3.5 8.7 0.00 0.00 0.00 10 1016.7
20260507165010 84 198 0.9 8.7 0.00 0.00 0.00 10 1016.7
20260507164511 84 157 3.5 5.2 0.00 0.00 0.00 11 1016.7
20260507164011 83 182 0.9 3.5 0.00 0.00 0.00 11 1016.7
20260507163511 83 142 0.0 5.2 0.00 0.00 0.00 12 1016.7
20260507163011 83 212 0.9 5.2 0.00 0.00 0.00 12 1016.7
20260507162512 83 159 1.7 5.2 0.00 0.00 0.00 13 1017.1
20260507162011 82 121 0.9 8.7 0.00 0.00 0.00 10 1017.1
20260507161511 82 130 4.3 8.7 0.00 0.00 0.00 9 1017.1
20260507161011 82 175 0.9 5.2 0.00 0.00 0.00 10 1017.3
20260507160512 82 250 3.5 4.3 0.00 0.00 0.00 11 1017.3
20260507160011 81 175 1.7 5.2 0.00 0.00 0.00 10 1017.3
20260507155511 81 241 0.9 5.2 0.00 0.00 0.00 10 1017.3
20260507155011 80 169 0.9 5.2 0.00 0.00 0.00 11 1017.3
20260507154511 80 165 2.6 5.2 0.00 0.00 0.00 11 1017.3
20260507154011 80 247 4.3 6.1 0.00 0.00 0.00 12 1017.3
20260507153010 79 3 1.7 4.3 0.00 0.00 0.00 12 1017.3
20260507152510 78 259 3.5 4.3 0.00 0.00 0.00 15 1017.3
20260507152010 78 249 3.5 4.3 0.00 0.00 0.00 15 1017.3
20260507151510 78 297 1.7 5.2 0.00 0.00 0.00 17 1017.3
20260507151015 78 252 4.3 5.2 0.00 0.00 0.00 16 1017.3
20260507150511 77 257 2.6 5.2 0.00 0.00 0.00 13 1017.3
20260507145511 76 267 1.7 6.1 0.00 0.00 0.00 17 1017.3
20260507145011 76 244 1.7 7.8 0.00 0.00 0.00 15 1017.3
20260507144511 77 330 3.5 11.3 0.00 0.00 0.00 15 1017.3
20260507144011 77 306 4.3 11.3 0.00 0.00 0.00 11 1017.4
20260507143011 76 325 6.1 11.3 0.00 0.00 0.00 11 1017.4
20260507141011 74 306 1.7 10.4 0.00 0.00 0.00 13 1017.4
20260507140512 73 302 0.9 7.8 0.00 0.00 0.00 14 1017.4
20260507140012 72 78 1.7 7.8 0.00 0.00 0.00 14 1017.4
20260507135511 71 184 0.9 4.3 0.00 0.00 0.00 19 1017.4
20260507135011 71 89 0.9 4.3 0.00 0.00 0.00 21 1017.4
20260507134511 71 70 0.9 3.5 0.00 0.00 0.00 22 1017.4
20260507133511 69 76 1.7 2.6 0.00 0.00 0.00 23 1017.3
20260507133011 69 61 0.9 3.5 0.00 0.00 0.00 25 1017.3
20260507132511 70 140 0.0 3.5 0.00 0.00 0.00 23 1017.1
20260507132011 70 274 1.7 3.5 0.00 0.00 0.00 23 1017.1
20260507131511 70 150 2.6 3.5 0.00 0.00 0.00 22 1017.1
20260507130511 69 138 1.7 6.1 0.00 0.00 0.00 22 1017.2
20260507125510 68 340 2.6 3.5 0.00 0.00 0.00 25 1016.9
20260507125011 69 101 2.6 5.2 0.00 0.00 0.00 24 1016.9
20260507124511 69 114 3.5 5.2 0.00 0.00 0.00 23 1016.9
20260507124011 69 79 1.7 5.2 0.00 0.00 0.00 23 1016.9
20260507123510 68 94 3.5 5.2 0.00 0.00 0.00 25 1016.9
20260507123010 67 196 0.0 2.6 0.00 0.00 0.00 24 1016.9
20260507122511 67 288 0.9 3.5 0.00 0.00 0.00 25 1016.9
20260507121512 67 6 0.9 1.7 0.00 0.00 0.00 25 1016.9
20260507120511 67 340 0.0 1.7 0.00 0.00 0.00 26 1016.9
20260507115511 68 269 0.9 2.6 0.00 0.00 0.00 24 1016.9
20260507115011 69 278 0.9 3.5 0.00 0.00 0.00 23 1016.9
20260507114511 69 278 0.9 3.5 0.00 0.00 0.00 23 1016.9
20260507114012 69 321 0.9 2.6 0.00 0.00 0.00 23 1016.9
20260507113511 69 296 1.7 4.3 0.00 0.00 0.00 23 1016.9
20260507113011 69 359 0.9 4.3 0.00 0.00 0.00 24 1016.9
20260507112511 69 335 2.6 4.3 0.00 0.00 0.00 24 1017.0
20260507111511 68 310 1.7 4.3 0.00 0.00 0.00 25 1017.0
20260507111011 68 317 2.6 5.2 0.00 0.00 0.00 24 1017.2
20260507110511 68 340 2.6 5.2 0.00 0.00 0.00 24 1017.2
20260507110011 69 318 1.7 3.5 0.00 0.00 0.00 23 1017.2
20260507105511 69 295 2.6 2.6 0.00 0.00 0.00 23 1017.4
20260507105010 70 291 1.7 2.6 0.00 0.00 0.00 22 1017.4
20260507104511 69 269 1.7 2.6 0.00 0.00 0.00 22 1017.4
20260507103511 68 293 0.9 3.5 0.00 0.00 0.00 23 1017.4
20260507103011 68 319 0.9 3.5 0.00 0.00 0.00 24 1017.4
20260507102510 67 295 2.6 2.6 0.00 0.00 0.00 24 1017.5
20260507101512 67 38 0.9 3.5 0.00 0.00 0.00 24 1017.5
20260507101012 67 40 1.7 3.5 0.00 0.00 0.00 24 1017.6
20260507100511 67 275 1.7 2.6 0.00 0.00 0.00 24 1017.6
20260507100011 67 340 0.9 2.6 0.00 0.00 0.00 24 1017.6
20260507095010 67 315 0.0 1.7 0.00 0.00 0.00 24 1017.7
20260507094010 67 335 0.9 1.7 0.00 0.00 0.00 24 1017.9
20260507093511 67 335 0.0 1.7 0.00 0.00 0.00 24 1017.9
20260507093010 67 330 0.0 3.5 0.00 0.00 0.00 24 1017.9
20260507092011 68 30 2.6 3.5 0.00 0.00 0.00 23 1017.9
20260507091513 68 324 0.9 3.5 0.00 0.00 0.00 23 1017.9
20260507091013 69 344 1.7 3.5 0.00 0.00 0.00 23 1018.1
20260507090010 69 335 0.9 3.5 0.00 0.00 0.00 23 1018.1
20260507085510 68 305 2.6 4.3 0.00 0.00 0.00 23 1018.1
20260507085010 68 324 0.9 4.3 0.00 0.00 0.00 23 1018.1
20260507084510 68 307 2.6 4.3 0.00 0.00 0.00 24 1018.1
20260507083510 68 310 0.0 2.6 0.00 0.00 0.00 24 1018.1
20260507083010 68 313 0.0 1.7 0.00 0.00 0.00 24 1018.1
20260507082510 68 335 0.0 1.7 0.00 0.00 0.00 25 1018.3
20260507082011 68 335 0.0 1.7 0.00 0.00 0.00 25 1018.3
20260507081512 68 340 0.9 2.6 0.00 0.00 0.00 25 1018.3
20260507081011 68 330 0.0 3.5 0.00 0.00 0.00 24 1018.2
20260507080511 69 335 1.7 3.5 0.00 0.00 0.00 24 1018.2
20260507080012 69 325 2.6 3.5 0.00 0.00 0.00 23 1018.2
20260507075511 69 335 0.0 2.6 0.00 0.00 0.00 24 1018.2
20260507075011 70 14 1.7 2.6 0.00 0.00 0.00 23 1018.2
20260507074511 71 9 1.7 2.6 0.00 0.00 0.00 22 1018.2
20260507074013 71 359 0.9 2.6 0.00 0.00 0.00 22 1018.2
20260507073011 72 319 0.9 2.6 0.00 0.00 0.00 21 1018.2
20260507072511 73 292 0.0 6.1 0.00 0.00 0.00 20 1018.2
20260507071511 73 283 2.6 6.1 0.00 0.00 0.00 20 1018.2
20260507071011 73 335 0.9 5.2 0.00 0.00 0.00 20 1018.3
20260507070511 73 311 1.7 5.2 0.00 0.00 0.00 20 1018.3
20260507070013 73 292 1.7 4.3 0.00 0.00 0.00 20 1018.3
20260507065012 73 259 0.9 4.3 0.00 0.00 0.00 20 1018.2
20260507064511 73 306 0.9 3.5 0.00 0.00 0.00 20 1018.2
20260507064011 73 279 1.7 3.5 0.00 0.00 0.00 20 1018.2
20260507063511 73 266 1.7 5.2 0.00 0.00 0.00 20 1018.2
20260507063011 72 302 1.7 5.2 0.00 0.00 0.00 21 1018.2
20260507062511 73 325 1.7 2.6 0.00 0.00 0.00 21 1018.2
20260507062011 73 313 1.7 2.6 0.00 0.00 0.00 21 1018.2
20260507061012 73 308 0.9 3.5 0.00 0.00 0.00 21 1018.2
20260507060511 73 289 1.7 2.6 0.00 0.00 0.00 20 1018.2
20260507055513 73 302 0.9 3.5 0.00 0.00 0.00 22 1018.2
20260507055011 73 323 0.9 3.5 0.00 0.00 0.00 21 1018.2
20260507054511 73 293 0.9 2.6 0.00 0.00 0.00 21 1018.2
20260507054011 74 313 0.9 3.5 0.00 0.00 0.00 21 1018.1
20260507053512 74 293 2.6 3.5 0.00 0.00 0.00 21 1018.1
20260507053010 74 315 2.6 2.6 0.00 0.00 0.00 20 1018.1
20260507052510 74 297 1.7 3.5 0.00 0.00 0.00 20 1018.2
20260507051511 74 279 1.7 3.5 0.00 0.00 0.00 20 1018.2
20260507050512 74 295 1.7 4.3 0.00 0.00 0.00 21 1018.2
20260507050010 74 315 1.7 3.5 0.00 0.00 0.00 21 1018.2
20260507045011 75 284 1.7 3.5 0.00 0.00 0.00 21 1018.2
20260507044511 75 275 0.9 3.5 0.00 0.00 0.00 20 1018.2
20260507044011 75 298 1.7 5.2 0.00 0.00 0.00 21 1018.0
20260507043510 75 281 1.7 5.2 0.00 0.00 0.00 21 1018.0
20260507043012 75 284 3.5 4.3 0.00 0.00 0.00 21 1018.0
20260507042010 75 284 2.6 5.2 0.00 0.00 0.00 21 1017.7
20260507041511 75 275 1.7 5.2 0.00 0.00 0.00 21 1017.7
20260507041011 75 286 1.7 4.3 0.00 0.00 0.00 21 1017.6
20260507040511 75 256 2.6 3.5 0.00 0.00 0.00 21 1017.6
20260507040012 75 290 2.6 3.5 0.00 0.00 0.00 25 1017.6
20260507035011 75 286 2.6 2.6 0.00 0.00 0.00 21 1017.5
20260507034511 75 286 1.7 2.6 0.00 0.00 0.00 21 1017.5
20260507034011 75 269 1.7 2.6 0.00 0.00 0.00 21 1017.2
20260507033511 75 267 0.0 2.6 0.00 0.00 0.00 21 1017.2
20260507033012 75 269 1.7 1.7 0.00 0.00 0.00 21 1017.2
20260507032511 76 269 0.0 0.9 0.00 0.00 0.00 21 1017.1
20260507032010 76 269 0.0 0.9 0.00 0.00 0.00 21 1017.1
20260507031511 76 269 0.0 1.7 0.00 0.00 0.00 20 1017.1
20260507031011 76 269 0.0 1.7 0.00 0.00 0.00 20 1016.9
20260507030511 76 263 0.0 1.7 0.00 0.00 0.00 20 1016.9
20260507030012 76 263 0.0 0.9 0.00 0.00 0.00 20 1016.9
20260507025512 77 263 0.0 0.9 0.00 0.00 0.00 20 1016.6
20260507025011 77 263 0.0 1.7 0.00 0.00 0.00 20 1016.6
20260507024510 77 263 0.0 1.7 0.00 0.00 0.00 19 1016.6
20260507024012 77 263 0.0 1.7 0.00 0.00 0.00 19 1016.5
20260507023011 78 263 0.0 0.9 0.00 0.00 0.00 19 1016.5
20260507022511 78 263 0.0 1.7 0.00 0.00 0.00 18 1016.5
20260507021512 78 215 0.9 0.9 0.00 0.00 0.00 18 1016.5
20260507021010 79 184 0.0 2.6 0.00 0.00 0.00 18 1016.4
20260507020511 79 182 0.9 3.5 0.00 0.00 0.00 18 1016.4
20260507015511 79 182 0.0 8.7 0.00 0.00 0.00 17 1016.3
20260507015011 79 204 1.7 8.7 0.00 0.00 0.00 17 1016.3
20260507014511 79 181 0.9 5.2 0.00 0.00 0.00 18 1016.3
20260507014011 79 173 1.7 6.1 0.00 0.00 0.00 17 1016.1
20260507013511 79 165 1.7 6.1 0.00 0.00 0.00 17 1016.1
20260507013011 80 176 1.7 4.3 0.00 0.00 0.00 17 1016.1
20260507012512 80 146 3.5 4.3 0.00 0.00 0.00 17 1016.1
20260507012011 80 186 1.7 3.5 0.00 0.00 0.00 17 1016.1
20260507011512 80 175 1.7 4.3 0.00 0.00 0.00 17 1016.1
20260507010511 80 196 1.7 6.1 0.00 0.00 0.00 17 1016.1
20260507010011 80 197 0.0 6.1 0.00 0.00 0.00 17 1016.1
20260507005511 81 314 2.6 7.8 0.00 0.00 0.00 17 1016.1
20260507005011 81 257 4.3 7.8 0.00 0.00 0.00 17 1016.1
20260507004512 81 229 0.9 7.8 0.00 0.00 0.00 17 1016.1
20260507004011 81 164 5.2 7.8 0.00 0.00 0.00 16 1016.1
20260507003511 81 181 1.7 7.8 0.00 0.00 0.00 16 1016.1
20260507003011 82 241 1.7 7.8 0.00 0.00 0.00 16 1016.1
20260507002512 82 252 2.6 4.3 0.00 0.00 0.00 16 1016.1
20260507002012 82 214 0.0 5.2 0.00 0.00 0.00 16 1016.1
20260507001512 81 201 0.9 8.7 0.00 0.00 0.00 16 1016.1
20260507001011 81 215 1.7 8.7 0.00 0.00 0.00 16 1015.1
20260507000511 81 188 1.7 5.2 0.00 0.00 0.00 17 1015.1
20260507000011 81 155 3.5 10.4 0.00 0.00 0.00 17 1015.1
20260506235511 81 183 1.7 10.4 0.00 0.00 0.00 17 1015.2
20260506235011 81 205 1.7 10.4 0.00 0.00 0.00 17 1015.2
20260506234511 81 161 3.5 10.4 0.00 0.00 0.00 17 1015.2
20260506233512 82 168 0.9 6.1 0.00 0.00 0.00 17 1015.2
20260506233011 82 142 2.6 6.1 0.00 0.00 0.00 16 1015.2
20260506232511 82 236 0.9 7.8 0.00 0.00 0.00 17 1015.4
20260506232011 81 279 3.5 7.8 0.00 0.00 0.00 16 1015.4
20260506231511 81 155 1.7 7.8 0.00 0.00 0.00 17 1015.4
20260506231011 81 244 1.7 7.8 0.00 0.00 0.00 17 1015.7
20260506230511 81 323 2.6 6.1 0.00 0.00 0.00 17 1015.7
20260506230010 82 225 5.2 7.8 0.00 0.00 0.00 17 1015.7
20260506225510 82 171 1.7 7.8 0.00 0.00 0.00 17 1015.7
20260506224511 82 200 2.6 8.7 0.00 0.00 0.00 17 1015.7
20260506224012 81 253 1.7 8.7 0.00 0.00 0.00 17 1015.9
20260506223511 82 275 3.5 7.8 0.00 0.00 0.00 17 1015.9
20260506223011 81 284 6.1 7.0 0.00 0.00 0.00 17 1015.9
20260506222511 80 202 0.9 9.6 0.00 0.00 0.00 18 1016.1
20260506222011 80 103 4.3 9.6 0.00 0.00 0.00 17 1016.1
20260506221512 80 161 6.1 9.6 0.00 0.00 0.00 17 1016.1
20260506221011 80 159 3.5 9.6 0.00 0.00 0.00 18 1016.3
20260506220511 81 261 7.8 8.7 0.00 0.00 0.00 18 1016.3
20260506220012 81 270 1.7 8.7 0.00 0.00 0.00 17 1016.3
20260506215511 80 261 6.1 7.8 0.00 0.00 0.00 18 1016.6
20260506215011 80 139 1.7 3.5 0.00 0.00 0.00 18 1016.6
20260506214511 80 202 2.6 5.2 0.00 0.00 0.00 18 1016.6
20260506213011 80 173 1.7 6.1 0.00 0.00 0.00 18 1016.8
20260506212511 80 209 2.6 6.1 0.00 0.00 0.00 19 1017.1
20260506212011 79 179 0.9 9.6 0.00 0.00 0.00 19 1017.1
20260506211011 79 121 1.7 8.7 0.00 0.00 0.00 19 1017.4
20260506210511 78 167 3.5 7.8 0.00 0.00 0.00 18 1017.4
20260506210011 79 234 3.5 6.1 0.00 0.00 0.00 18 1017.4
20260506205511 79 180 4.3 6.1 0.00 0.00 0.00 20 1017.6
20260506204011 78 165 6.1 8.7 0.00 0.00 0.00 19 1017.8
20260506203511 78 161 5.2 8.7 0.00 0.00 0.00 19 1017.8
20260506203011 77 78 3.5 9.6 0.00 0.00 0.00 20 1017.8
20260506202511 77 148 2.6 9.6 0.00 0.00 0.00 19 1018.0
20260506202011 77 159 5.2 7.8 0.00 0.00 0.00 19 1018.0
20260506201512 77 165 7.0 7.8 0.00 0.00 0.00 20 1018.0
20260506201010 77 273 2.6 8.7 0.00 0.00 0.00 20 1018.1